Location: ActonStarParty
(42.4766°N, 71.4538°W)
Time: 14:01:06
(UTC-04:00)

ATLAS 5 CENTAUR R/B - Visible Passes

Search period start: 30 August 2015 00:00
Search period end: 09 September 2015 00:00
Orbit: 315 x 14880 km, 60.8° (Epoch: 18 July)

Date Brightness Start Highest point End Pass type
(mag) Time Alt. Az. Time Alt. Az. Time Alt. Az.
30 Aug 5.9 21:32:45 10° WNW 23:33:53 77° NE 23:45:48 41° ESE visible
31 Aug 6.7 03:43:43 10° NW 04:11:11 16° WNW 04:19:23 11° W visible
31 Aug 6.5 19:50:25 10° W 22:11:32 65° NNE 22:33:45 23° E visible
01 Sep 6.3 02:12:53 10° NW 03:02:13 32° W 03:07:20 28° WSW visible
01 Sep 6.9 18:17:54 10° WSW 20:42:21 61° N 21:20:56 10° E visible
02 Sep 5.8 00:41:59 10° NW 01:51:24 53° W 01:55:16 49° SW visible
02 Sep 7.3 16:53:45 10° SW 19:04:41 65° NNW 20:03:52 10° ENE visible
02 Sep 5.6 23:06:05 10° NW 00:37:55 79° WSW 00:43:10 62° S visible
03 Sep 5.9 21:23:07 10° WNW 23:20:51 80° NE 23:31:02 48° ESE visible
04 Sep 6.9 03:32:37 10° NW 03:56:18 14° WNW 04:04:26 10° W visible
04 Sep 6.3 19:39:48 10° W 21:59:06 66° NNE 22:18:54 28° E visible
05 Sep 6.4 02:00:33 10° NW 02:47:26 29° W 02:52:27 26° W visible
05 Sep 6.8 18:05:40 10° WSW 20:30:44 61° N 21:06:43 12° E visible
06 Sep 5.9 00:29:43 10° NW 01:36:47 49° W 01:40:17 46° WSW visible
06 Sep 7.2 16:40:21 10° SW 18:53:46 64° NNW 19:50:02 10° ENE visible
06 Sep 5.6 22:54:29 10° NW 00:23:34 75° WSW 00:28:04 63° S visible
07 Sep 5.8 21:12:14 10° WNW 23:06:51 83° NE 23:15:51 52° SE visible
08 Sep 7.0 03:21:02 10° NW 03:40:38 13° WNW 03:47:05 10° WNW visible
08 Sep 6.2 19:28:14 10° W 21:45:36 68° NNE 22:03:35 31° ESE visible
